AirNav   Pilot Hours Calculator
 
 1148 users online  

F36 Cordell Municipal Airport
Cordell, Oklahoma, USA

GOING TO CORDELL?


FAA INFORMATION EFFECTIVE 22 APRIL 2021

Location

FAA Identifier: F36
Lat/Long: 35-17-46.6773N 098-58-03.7763W
35-17.777955N 098-58.062938W
35.2962992,-98.9677156
(estimated)
Elevation: 1589.4 ft. / 484.4 m (surveyed)
Variation: 08E (1985)
From city: 1 mile E of CORDELL, OK
Time zone: UTC -5 (UTC -6 during Standard Time)
Zip code: 73632

Airport Operations

Airport use: Open to the public
Activation date: 11/1948
Control tower: no
ARTCC: FORT WORTH CENTER
FSS: MC ALESTER FLIGHT SERVICE STATION
NOTAMs facility: MLC (NOTAM-D service available)
Attendance: MON-FRI 0800-1700
FOR ATTENDANT AFT HRS CALL 580-660-0417 OR POLICE DEPT 580-832-3046.
Wind indicator: lighted
Segmented circle: yes
Lights: ACTVT MIRL RWY 17/35 - CTAF.
Beacon: white-green (lighted land airport)
ARPT BCN OTS INDEFLY. Operates sunset to sunrise.

Airport Communications

CTAF: 122.9
WX ASOS at CSM (12 nm W): 118.450 (580-562-4811)
WX AWOS-3 at CLK (15 nm N): 119.225 (580-323-8477)
WX ASOS at HBR (19 nm S): 133.325 (580-726-6651)

Nearby radio navigation aids

VOR radial/distance  VOR name  Freq  Var
BFVr068/12.2BURNS FLAT VORTAC110.0005E
HBRr000/26.2HOBART VORTAC111.8010E

 
NDB name  Hdg/Dist  Freq  Var  ID
FOSSI124/14.739305EBZ -... --..

Airport Services

Parking: tiedowns
Airframe service: NONE
Powerplant service: NONE
Bottled oxygen: NONE
Bulk oxygen: NONE

Runway Information

Runway 17/35

Dimensions: 3430 x 60 ft. / 1045 x 18 m
Surface: asphalt, in good condition
Weight bearing capacity: 
Single wheel: 12.6
Runway edge lights: medium intensity
RUNWAY 17  RUNWAY 35
Latitude: 35-18.116397N35-17.551080N
Longitude: 098-58.043250W098-58.043937W
Elevation: 1589.4 ft.1556.1 ft.
Traffic pattern: leftleft
Runway heading: 172 magnetic, 180 true352 magnetic, 000 true
Markings: basic, in good conditionbasic, in good condition
Touchdown point: yes, no lightsyes, no lights

Runway 4/22

Dimensions: 1886 x 100 ft. / 575 x 30 m
Surface: turf, in fair condition
RUNWAY 4  RUNWAY 22
Latitude: 35-17.567472N35-17.785535N
Longitude: 098-58.233190W098-57.963048W
Elevation: 1550.1 ft.1571.2 ft.
Traffic pattern: leftleft
Runway heading: 037 magnetic, 045 true217 magnetic, 225 true
Markings: none, in poor conditionnone, in poor condition
Touchdown point: yes, no lightsyes, no lights
Obstructions: 15 ft. road, 200 ft. from runway, 13:1 slope to clearnone

Airport Ownership and Management from official FAA records

Ownership: Publicly-owned
Owner: CITY OF CORDELL
CITY HALL 101 E MAIN
CORDELL, OK 73632
Phone 580-832-3825
Manager: CHARLIE BROWN
525 GREGORY PARK LANE
CORDELL, OK 73632
Phone 580-660-0417
PUB WORKS DIR.

Airport Operational Statistics

Aircraft based on the field: 4
Single engine airplanes: 4
    
Aircraft operations: avg 38/month *
67% local general aviation
33% transient general aviation
* for 12-month period ending 05 March 2018

Additional Remarks

FOR CD CTC FORT WORTH ARTCC AT 817-858-7584.

Instrument Procedures

There are no published instrument procedures at F36.

Some nearby airports with instrument procedures:

KCSM - Clinton-Sherman Airport (12 nm W)
KCLK - Clinton Regional Airport (15 nm N)
KHBR - Hobart Regional Airport (19 nm S)
KOJA - Thomas P Stafford Airport (21 nm NE)
KELK - Elk City Regional Business Airport (22 nm W)
 
Loc | Ops | Rwys | IFR | FBO | Links
Com | Nav | Svcs | Stats | Notes

AirBoss

 
Area around F36 (Cordell Municipal Airport)
 
Road maps at: MapQuest Bing Google
 
Aerial photo
WARNING: Photo may not be current or correct
Aerial photo of F36 (Cordell Municipal Airport)
Do you have a better or more recent aerial photo of Cordell Municipal Airport that you would like to share? If so, please send us your photo.

 
Sectional chart

 
Airport distance calculator
Flying to Cordell Municipal Airport? Find the distance to fly.

From to F36

Sunrise and sunset
Times for 11-May-2021
 Local
(UTC-5)
 Zulu
(UTC)
Morning civil twilight06:0811:08
Sunrise06:3611:36
Sunset20:2901:29
Evening civil twilight20:5701:57

Current date and time
Zulu (UTC)  11-May-2021 23:46:14
Local (UTC-5)  11-May-2021 18:46:14
 
METAR
KCSM 
12nm W 
112331Z 03014KT 10SM FEW013 BKN023 OVC028 12/09 A3016 RMK AO2 T01170089
KCLK 
14nm N 
112335Z AUTO 03013KT 10SM SCT023 OVC031 12/08 A3018 RMK AO2
KHBR 
19nm S 
112253Z AUTO 05013KT 10SM BKN021 OVC027 13/10 A3013 RMK AO2 SLP201 T01330100
KOJA 
21nm NE 
112335Z AUTO 04011KT 10SM BKN022 OVC029 12/08 A3017 RMK AO2 T01230082
KELK 
22nm W 
112335Z AUTO 04015G18KT 10SM OVC018 11/08 A3020 RMK AO2 T01120082
TAF
KCSM 
12nm W 
112113Z 1121/1218 03015KT P6SM OVC015 FM120200 01012KT P6SM OVC035
NOTAMs
Click for the latest NOTAMs
NOTAMs are issued by the DoD/FAA and will open in a separate window not controlled by AirNav.

 

 
 

Would you like to see your business listed on this page?

 If your business provides an interesting product or service to pilots, flight crews, aircraft, or users of the Cordell Municipal Airport, you should consider listing it here.  To start the listing process, click on the button below
 
Add a business
 

Other Pages about Cordell Municipal Airport

Update a link
 
Copyright © AirNav, LLC. All rights reserved. Privacy Policy  Contact